Theta_e
338 337 336 336 337 338 337 337 337 338 338 339 339 338 338 336 336 334 325 316 313 315 323 330 333 334 334 335 335 335 334 333 331 332 332 332 332 331 332 331 331 331
340 338 337 337 337 337 337 336 336 336 337 338 338 337 336 335 336 334 328 317 311 315 323 330 333 334 334 334 335 335 333 333 332 332 332 332 332 332 332 331 331 331
341 338 337 338 337 337 336 335 335 336 337 337 338 336 335 335 335 334 330 320 313 316 323 328 331 333 334 334 334 334 333 332 332 332 332 332 332 332 332 332 331 331
340 338 337 337 337 336 336 336 335 336 337 337 337 336 334 334 335 335 332 324 317 317 320 325 331 333 332 333 333 333 332 332 331 331 332 332 332 332 332 332 330 330
340 339 337 337 337 337 337 336 336 336 336 336 336 336 334 333 335 335 333 328 322 320 322 328 332 333 331 331 333 333 332 332 332 332 332 332 332 332 331 331 331 330
340 339 338 338 338 338 338 337 336 336 336 336 336 336 334 333 335 335 334 331 327 326 327 330 333 333 331 331 332 332 332 332 332 332 332 332 331 331 331 331 331 331
340 339 339 339 338 339 338 337 337 336 337 336 336 335 334 333 334 335 335 333 330 329 330 330 331 332 331 331 333 333 332 332 332 333 332 331 331 331 332 331 331 331
340 340 339 339 339 339 338 338 338 337 337 337 336 336 334 333 333 335 335 335 333 331 331 330 330 331 331 332 333 333 332 332 332 332 332 331 331 331 331 332 331 331
341 340 340 340 339 339 339 338 338 338 338 338 337 336 335 333 333 335 336 336 336 334 333 332 331 331 332 334 334 333 333 332 332 332 332 331 330 330 331 332 331 332
341 340 340 341 339 339 339 339 338 338 338 338 337 336 336 335 334 335 336 337 337 336 335 335 334 333 333 335 335 334 333 333 333 332 332 331 330 330 331 332 331 332
340 341 341 341 340 339 339 339 339 339 338 338 338 338 337 336 335 335 337 337 338 337 337 336 336 335 335 336 336 335 334 333 333 333 332 331 331 331 331 332 332 332
339 340 341 341 340 339 339 339 340 339 339 339 339 339 337 336 336 336 337 338 338 338 338 338 338 337 336 336 336 336 335 334 334 333 333 332 331 331 331 332 332 333
336 339 341 341 341 340 339 340 340 340 340 340 340 340 339 337 337 337 337 337 338 338 339 339 339 338 338 338 337 337 335 335 334 334 333 333 332 331 331 332 333 333
333 336 339 340 341 341 340 341 341 340 340 340 341 341 340 336 335 336 337 337 338 338 339 340 340 339 339 339 338 337 336 336 335 335 334 333 332 332 332 333 333 333
338 336 338 339 341 341 341 341 341 340 340 341 341 341 341 338 335 337 339 339 339 339 339 340 340 340 339 339 339 338 336 336 336 335 334 333 333 333 333 333 334 334
342 340 339 340 341 342 342 342 341 340 340 341 341 341 341 341 339 338 339 340 340 339 339 340 341 341 340 340 339 338 337 337 336 336 334 334 334 334 334 334 334 334
339 342 341 341 342 341 342 342 341 341 341 341 341 342 342 342 341 340 339 340 340 340 339 339 340 340 340 340 339 338 337 337 337 336 335 334 334 334 334 334 333 333
332 339 342 341 342 342 341 341 341 341 341 341 341 342 342 341 342 341 340 340 340 340 339 339 339 339 340 340 339 338 338 338 337 336 335 335 335 334 334 334 334 333
336 339 341 341 341 340 340 340 340 340 341 341 341 342 342 341 342 342 341 340 340 340 340 340 340 340 340 340 339 339 339 338 337 336 336 335 334 334 334 333 333 332
336 338 341 342 340 338 338 339 340 341 341 341 341 341 341 342 341 342 342 341 340 340 340 340 340 340 340 340 340 339 339 338 337 337 336 335 334 333 333 332 331 331
329 331 335 339 340 340 340 340 341 341 342 342 341 341 342 340 336 335 339 341 341 340 340 340 340 340 341 341 341 340 339 338 338 337 336 335 334 333 333 332 330 330
328 326 330 334 335 338 340 342 342 341 341 342 341 342 341 336 329 327 331 335 337 337 338 339 340 340 340 340 340 340 339 338 338 337 336 335 334 334 333 331 330 329
329 326 326 328 329 332 337 340 340 340 340 341 340 341 340 335 330 327 325 326 327 329 331 334 337 340 340 340 340 340 338 338 337 337 336 335 334 334 333 331 330 330
327 327 326 324 326 330 333 336 336 335 336 337 337 338 337 333 332 333 329 324 323 325 327 328 333 339 340 340 339 339 338 337 337 337 336 335 334 334 333 331 330 330
327 327 328 327 328 329 332 335 336 334 334 334 335 336 334 331 334 337 335 329 325 325 327 327 330 336 340 340 339 339 338 337 337 337 336 335 335 334 333 332 330 330
326 327 327 328 330 331 332 334 335 335 335 336 335 334 331 329 332 335 335 332 328 327 328 328 328 331 336 339 339 338 338 337 337 337 336 335 334 334 333 332 331 330
Wind_Speed
46 45 43 44 46 46 45 46 46 46 45 44 43 42 40 37 36 35 36 39 40 39 36 33 32 31 29 28 28 28 28 27 27 26 25 25 24 24 24 24 24 23
50 47 45 46 46 46 46 46 46 46 46 45 44 42 39 37 36 36 37 39 41 40 37 34 32 31 31 30 29 28 28 28 28 27 26 25 25 24 24 24 24 24
51 48 48 48 47 46 46 46 47 47 46 46 45 42 39 38 38 37 38 39 41 41 39 36 33 32 31 30 29 29 29 28 28 27 27 26 25 25 25 24 24 24
51 49 48 48 47 46 46 47 48 48 47 46 45 43 39 39 39 39 38 40 41 41 40 38 36 33 31 31 30 30 29 29 28 27 27 26 26 26 25 25 25 25
51 49 47 47 47 47 47 48 47 47 47 46 45 43 40 40 41 41 40 40 41 41 41 39 37 35 33 32 31 31 30 30 29 28 28 27 26 26 26 26 26 25
52 51 49 48 47 48 49 48 47 46 46 45 43 43 42 41 43 42 42 42 41 41 41 40 38 36 35 33 33 32 32 31 30 29 29 28 27 27 27 27 27 26
52 51 51 49 47 49 50 49 47 45 45 43 42 43 42 42 44 44 43 43 42 43 42 41 40 38 37 36 34 33 32 32 31 31 30 29 27 27 27 28 28 27
52 52 51 50 48 49 50 50 48 46 45 44 42 42 42 42 44 44 44 43 43 43 43 42 41 40 38 37 36 35 34 33 32 32 32 30 29 28 28 28 28 28
51 52 52 51 50 50 51 51 49 47 46 46 44 42 42 42 43 44 44 44 44 44 44 43 41 41 40 39 38 37 36 35 34 33 33 31 30 29 29 29 29 29
51 52 52 52 51 51 51 51 50 49 48 47 45 44 42 41 42 43 43 44 45 45 44 43 42 41 41 40 39 38 37 36 35 34 33 32 31 30 29 29 29 29
51 52 53 53 52 51 51 52 51 50 50 49 47 45 43 41 40 41 42 44 45 46 45 44 43 42 41 41 40 39 38 38 37 36 34 33 32 31 30 30 30 29
52 53 54 54 53 53 52 52 52 52 51 50 50 48 44 41 39 39 40 42 44 45 46 45 44 42 42 42 41 40 39 39 38 37 35 34 33 32 31 30 30 29
51 53 54 54 54 54 53 52 52 52 51 50 49 49 47 42 39 38 39 40 42 44 45 45 44 43 43 42 42 41 40 40 40 38 37 35 34 34 32 31 30 29
51 51 53 54 54 54 53 52 51 49 49 48 47 48 48 43 39 38 39 39 41 43 44 45 45 44 44 43 44 43 42 41 41 40 38 37 36 35 34 32 31 30
50 51 52 53 53 52 50 49 49 48 47 47 46 49 49 45 40 38 38 39 40 41 43 45 46 46 45 45 45 45 43 42 42 42 40 38 37 36 35 34 33 31
47 49 51 51 51 50 49 48 48 48 47 46 47 48 48 45 40 38 38 39 39 40 42 45 46 47 46 46 45 45 45 43 43 43 41 40 39 38 37 36 34 32
49 49 49 50 50 49 49 49 48 48 48 47 47 46 46 44 42 39 38 38 39 40 42 45 47 48 47 47 46 46 46 45 43 43 43 41 40 40 39 37 36 34
53 54 50 48 49 50 49 49 49 50 49 48 46 45 45 44 42 39 37 37 38 40 43 45 47 48 48 48 47 46 47 46 44 44 44 42 41 41 40 39 37 35
48 52 53 50 48 49 50 51 51 52 50 49 47 45 44 42 40 39 38 36 37 39 43 45 47 48 49 49 48 47 47 47 45 45 44 43 42 41 40 39 37 35
39 38 46 53 51 49 50 52 53 53 51 50 49 47 45 42 37 36 37 37 37 39 42 45 48 49 50 50 49 47 47 47 46 45 45 43 42 41 40 38 37 34
42 35 35 43 50 52 53 53 53 53 51 50 50 50 48 42 35 33 36 38 37 38 41 45 49 50 51 51 50 48 48 47 46 46 45 44 42 41 39 37 35 33
47 45 39 34 35 42 49 53 53 52 51 52 52 50 47 42 36 34 36 38 38 39 42 46 50 51 52 52 50 49 48 47 47 47 46 44 43 41 39 37 35 33
42 47 47 40 33 32 36 45 48 47 48 49 48 47 46 43 39 38 39 41 41 42 44 48 51 53 53 52 51 49 48 48 49 49 47 46 44 42 40 38 36 33
36 40 43 43 42 41 37 37 40 41 41 41 40 42 44 44 42 42 42 42 44 45 47 50 53 54 54 53 51 51 50 49 50 50 49 47 46 44 41 39 37 34
32 33 37 40 43 44 39 36 37 38 39 39 39 42 44 44 43 44 43 43 44 46 49 52 54 55 55 55 54 52 51 51 51 51 50 49 47 45 43 40 38 36
28 29 34 38 39 37 33 31 33 36 38 40 40 41 43 43 44 45 46 46 46 48 51 53 53 54 56 57 56 54 53 53 53 53 52 50 48 47 45 42 40 38
Wind_Direction
211 211 212 213 215 216 215 216 217 218 218 218 217 218 218 218 217 216 215 213 212 211 209 210 212 215 216 217 219 222 225 226 228 230 234 238 239 237 237 238 237 235
211 210 210 212 214 215 215 215 217 218 220 220 219 220 220 218 217 217 216 213 212 211 211 210 211 214 217 218 219 221 223 225 227 229 234 238 239 238 238 238 236 235
211 210 210 212 213 213 213 214 216 219 221 222 221 221 220 219 217 217 217 215 212 211 212 213 212 212 216 218 219 221 222 224 226 229 233 237 239 239 239 239 237 235
212 211 211 213 214 213 213 214 215 218 221 222 223 222 220 219 218 217 218 217 214 213 214 215 214 213 213 216 219 221 223 224 226 229 233 236 237 238 239 239 238 236
211 211 212 213 215 215 214 215 216 218 220 222 223 222 220 220 219 217 217 217 216 215 215 216 217 216 215 216 217 220 223 225 226 229 231 234 235 236 238 239 238 237
211 212 213 214 215 216 215 216 217 218 219 220 221 221 220 220 220 218 217 217 217 217 217 217 218 218 218 219 219 220 222 224 226 227 229 232 234 236 237 238 238 238
213 213 214 215 215 216 217 217 218 219 220 220 220 221 220 220 220 218 217 218 218 219 219 220 220 220 220 221 221 222 223 224 225 226 228 231 233 235 236 236 237 238
215 215 216 216 215 216 218 218 219 220 221 220 220 220 220 220 220 218 218 218 220 221 221 222 221 222 222 222 222 223 224 224 225 226 228 230 232 233 235 235 235 236
217 217 217 217 216 217 218 219 220 221 222 222 220 220 220 220 220 220 219 220 221 223 224 224 224 223 223 223 224 225 226 225 225 227 228 229 232 234 235 236 235 235
219 219 219 218 218 218 219 220 220 222 223 223 222 220 221 221 221 222 222 223 223 225 226 226 225 225 224 225 226 228 229 229 228 228 230 231 232 234 235 236 236 236
220 220 219 220 220 220 220 221 222 223 224 225 223 221 221 222 221 223 225 226 226 227 227 228 228 227 226 226 227 230 232 233 232 231 232 233 234 235 236 236 237 237
221 220 220 221 222 222 222 222 223 223 224 225 224 222 221 221 222 224 227 228 229 229 229 230 231 230 229 229 230 232 234 235 236 234 234 235 236 236 237 237 238 239
224 222 222 222 222 223 224 223 223 224 224 224 224 223 222 222 223 224 227 230 230 230 230 231 232 233 232 232 232 233 235 237 237 237 235 236 238 238 238 239 239 240
227 226 224 223 223 223 224 224 224 224 225 224 224 225 225 226 226 225 227 230 231 231 232 232 233 234 234 234 234 235 236 238 239 238 237 236 237 238 239 239 240 240
228 227 225 224 223 223 223 223 224 225 225 224 226 228 228 228 228 227 228 231 232 232 233 233 233 235 235 235 235 235 236 238 240 240 238 237 237 237 238 239 239 240
231 228 225 224 222 222 223 223 224 225 225 225 227 228 228 228 227 227 229 233 233 232 233 234 234 235 236 236 235 236 237 238 239 240 240 239 238 238 238 239 239 240
235 232 227 224 223 223 223 224 225 226 226 226 227 227 228 227 226 227 230 233 236 235 234 235 236 237 237 237 236 236 237 238 239 240 240 240 239 239 240 240 240 239
234 233 229 225 223 224 224 225 226 227 227 226 225 225 227 227 227 228 231 234 237 239 239 239 240 239 238 237 236 235 237 238 239 241 241 240 240 240 241 242 240 239
229 230 229 226 225 226 227 227 227 227 228 226 224 223 222 222 224 227 232 236 239 242 243 243 243 242 241 239 236 235 236 237 238 240 242 242 242 241 241 241 240 239
233 233 230 228 229 229 227 227 226 226 227 227 227 226 223 220 220 225 230 235 241 245 247 247 246 245 243 240 237 236 236 236 237 239 241 242 243 242 242 241 240 238
239 246 240 229 227 228 227 227 227 225 225 227 228 227 226 225 227 232 234 234 238 245 249 250 250 248 246 242 239 238 237 236 237 238 239 241 242 243 244 244 242 239
239 245 246 239 232 228 223 222 223 223 223 225 225 224 225 227 229 237 241 241 241 245 248 250 251 249 247 244 241 240 238 237 236 236 237 239 241 242 244 244 242 239
246 245 246 249 251 243 226 218 221 224 223 224 224 223 224 227 228 234 244 249 250 249 248 250 251 249 247 246 243 241 238 236 236 236 236 238 240 241 243 243 242 239
252 251 249 247 246 245 242 233 232 234 232 231 231 229 230 233 230 230 236 245 251 251 249 249 250 248 246 246 244 242 239 236 236 235 235 236 238 240 242 243 242 239
251 252 253 248 241 241 247 246 241 238 236 234 232 231 234 237 233 230 232 238 246 251 250 247 246 246 245 245 245 243 239 237 236 235 234 235 236 239 240 242 242 238
248 248 250 249 244 242 247 249 246 242 238 234 231 232 235 237 235 234 236 239 243 247 246 244 243 244 245 244 244 243 240 237 235 234 234 234 235 237 239 241 241 237